Location: Gro�wechsungen
(51.4926°N, 10.6901°E)
Time: 15:58:30
(UTC+00:00)

SPOT 3 Rocket - Pass Details

Date: 18 September 2020
Orbit: 779 x 794 km, 98.8° (Epoch: 22 October)

Event Time Altitude Azimuth Distance (km) Brightness Sun altitude
Exits shadow 20:03:39 26° 199° (SSW) 1,493 4.8 -23.9°
Maximum altitude 20:06:15 49° 260° (W) 1,007 4.3 -24.3°
Drops below altitude 10° 20:11:15 10° 335° (NNW) 2,346 6.8 -24.9°
Sets 20:13:40 0° 341° (NNW) 3,280 7.7 -25.2°
